weather.gov     
National Weather Service

Regional Weather Roundup
NWS Homepage
This page is being discontinued on March 12, 2014.
The same data is available at this site. Please update your bookmarks.
Thank you, and we apologize for the inconvenience.
Please send an email to SR-SRH.Webmaster@noaa.gov with any concerns.


Current Version
Previous Version:    01  02  03  04  05  06  07  08  09  10  11  12  13  14  15  16  17  18  19  20  21  22  23  24  25  26  27  28  29  30  
   31  32  33  34  35  36  37  38  39  40  41  42  43  44  45  46  47  48  49  50  51  52  53  54  55  56  57  
[Printable]
223
ASCA42 TJSJ 172311
RWRPR
PUERTO RICO/U.S. VIRGIN ISLANDS HOURLY WEATHER ROUNDUP
NATIONAL WEATHER SERVICE SAN JUAN PR
700 PM AST WED SEP 17 2014

PRZ001-004-180000-
PUERTO RICO

CITY           SKY/WX    TMP DP  RH WIND       PRES   REMARKS
SAN JUAN LMM   PTCLDY    82  75  78 E9        29.93R
AGUADILLA      CLEAR     81  73  78 E8        29.93
CEIBA          PTCLDY    82  75  78 E8        29.95S
$$

PRZ006-007-180000-
U.S. VIRGIN ISLANDS

CITY           SKY/WX    TMP DP  RH WIND       PRES   REMARKS
CHRISTIANSTED  PTCLDY    82  75  78 NE6       29.93
$$

HOURLY WEATHER ROUNDUP FOR THE NEWS MEDIA

CITY           SKY/WX    TMP DP  RH WIND       PRES   REMARKS
MIAMI          CLOUDY    80  74  81 CALM      29.91S
ORLANDO        MOCLDY    82  71  69 SW6       29.88R
NEW YORK       PTCLDY    66  49  54 S10       29.98R
NEWARK         PTCLDY    70  43  37 W7        29.97R
CHICAGO        CLEAR     70  44  39 E13       29.97S
HARTFORD       CLEAR     61  49  64 SW6       29.95R
BOSTON         PTCLDY    63  51  65 SE8       29.96R
DALLAS         PTSUNNY   83  66  56 S7        29.86F
PHILADELPHIA   PTCLDY    72  48  42 SW7       29.98R




U.S. Dept. of Commerce
NOAA National Weather Service
1325 East West Highway
Silver Spring, MD 20910
E-mail: w-nws.webmaster@noaa.gov
Page last modified: May 16, 2007
NATIONAL WEATHER SERVICE: for Safety, for Work, for Fun - FOR LIFE